Lapse_Rate
6.1 5.9 6.2 5.9 5.8 6.1 6.1 6.1 6.1 6.2 6.2 6.3 6.2 6.1 6.0 6.1 6.1 5.9 6.0 5.7 5.5 5.7
6.1 6.2 6.3 6.2 6.0 6.1 6.0 6.1 6.1 6.1 6.2 6.2 6.2 6.3 6.2 6.0 5.7 5.7 5.6 5.7 5.6 5.5
5.9 6.1 5.8 5.8 5.9 5.8 5.8 5.9 6.0 6.3 6.5 6.6 6.5 6.3 6.2 6.2 6.2 5.6 5.5 5.5 5.5 5.4
5.9 5.8 5.8 5.6 5.8 5.7 5.8 6.2 6.4 6.4 6.5 6.7 6.7 6.5 6.4 6.3 6.3 6.2 6.0 5.6 5.9 5.3
6.0 5.9 5.9 5.9 5.8 5.9 5.7 5.9 6.3 6.4 6.6 6.7 6.7 6.7 6.6 6.5 6.3 6.2 6.2 6.1 6.0 6.0
5.8 5.9 6.0 6.0 5.9 6.0 6.2 6.3 6.4 6.4 6.6 6.7 6.7 6.6 6.7 6.5 6.5 6.3 6.1 6.1 6.1 5.9
6.0 6.0 6.1 6.3 6.4 6.3 6.3 6.4 6.5 6.6 6.4 6.3 6.4 6.6 6.6 6.6 6.4 6.3 6.3 6.1 6.1 6.1
5.7 5.8 6.0 6.1 6.2 6.2 6.1 6.3 6.2 6.2 6.3 6.3 6.3 6.5 6.6 6.4 6.4 6.3 6.0 6.0 6.1 6.0
5.7 5.9 6.2 6.2 6.1 6.1 6.1 6.2 6.2 6.3 6.3 6.3 6.4 6.3 6.2 6.2 6.3 6.4 6.4 6.3 6.1 6.1
6.2 6.3 6.4 6.3 6.2 6.2 6.1 6.1 6.1 6.1 6.2 6.2 6.1 6.1 6.0 6.0 6.0 6.1 6.1 6.2 6.3 6.2
6.2 6.2 6.1 6.1 6.1 6.0 6.0 6.0 6.1 6.0 5.8 5.8 5.8 5.8 5.8 5.7 5.7 5.6 5.7 5.8 6.0 6.1
6.2 6.1 6.0 5.9 5.9 6.0 6.0 6.0 5.8 5.7 5.7 5.6 5.6 5.6 5.6 5.6 5.5 5.4 5.3 5.3 5.4 5.5
5.8 5.6 5.7 5.9 6.0 5.9 5.8 5.7 5.7 5.6 5.5 5.4 5.4 5.4 5.4 5.4 5.3 5.1 5.2 5.1 5.1 5.1
5.4 5.6 5.9 5.9 5.8 5.7 5.5 5.4 5.3 5.3 5.3 5.3 5.3 5.2 5.2 5.0 4.9 4.9 4.9 5.0 5.2 5.3
Wind_Speed
17 4 4 6 5 5 5 6 8 7 7 8 7 6 4 3 3 4 5 7 8 6
11 7 5 5 4 5 6 6 8 7 8 8 8 8 7 4 5 6 5 5 6 6
11 8 6 5 7 7 7 7 7 8 8 8 9 9 8 6 7 8 5 5 7 7
10 9 6 6 8 7 6 6 8 9 9 8 8 9 8 9 8 9 8 8 8 9
10 8 7 7 7 6 8 9 7 7 8 8 8 9 10 10 10 10 10 10 10 10
10 8 7 7 7 7 6 6 8 9 10 9 9 10 11 10 11 10 10 10 10 11
9 8 7 7 7 7 7 8 8 10 9 8 8 9 11 12 11 11 10 10 10 10
5 6 7 8 9 9 10 10 9 8 8 8 7 10 13 12 12 11 11 11 11 11
6 8 9 9 9 10 9 9 8 9 10 10 8 17 18 16 10 10 10 11 12 12
7 8 9 9 8 8 8 8 9 9 10 11 11 17 20 20 10 10 11 11 11 11
7 7 7 7 7 7 7 8 9 11 11 11 11 17 21 19 12 12 12 12 11 11
5 4 4 6 6 6 6 8 8 7 9 10 11 16 19 16 12 13 12 11 11 12
4 5 5 5 5 5 4 4 4 6 6 7 9 12 16 15 9 12 10 12 12 14
3 3 4 3 3 3 3 4 5 5 4 5 6 9 11 13 10 10 10 10 10 10
Wind_Direction
77 15 25 30 23 19 23 16 359 4 7 6 5 357 335 291 276 245 243 247 238 238
92 105 80 51 40 36 25 7 0 360 0 357 356 356 350 352 337 316 288 268 258 247
93 83 69 59 54 44 27 14 7 7 7 360 355 355 356 0 9 344 337 317 296 279
86 81 72 59 48 38 32 17 20 14 7 6 4 9 2 352 352 344 335 332 327 317
82 76 67 59 55 46 35 25 23 18 17 17 13 8 2 355 348 340 334 326 320 312
66 66 64 57 45 41 30 19 21 23 24 18 14 6 3 357 349 341 336 333 320 310
64 59 50 47 41 32 28 24 22 23 19 15 19 8 0 352 336 340 339 341 334 321
72 65 55 47 37 31 26 30 22 21 19 14 17 14 0 347 332 334 333 337 340 338
82 63 51 49 53 51 50 51 48 43 36 31 25 7 0 352 344 342 338 339 337 338
75 76 71 69 58 51 47 50 48 43 36 35 25 8 2 0 7 0 355 346 343 340
77 73 74 66 63 59 52 50 44 39 35 34 29 9 6 1 10 10 3 0 353 348
73 89 91 81 70 52 46 44 41 37 33 29 27 14 13 4 9 7 6 3 2 356
105 94 91 68 53 35 26 30 21 33 32 36 22 24 14 7 13 7 4 9 6 7
115 92 59 43 33 358 345 346 354 350 0 22 26 19 13 15 15 6 7 6 9 2